Simultaneous Nadir Overpasses (SNOs) Predictions

Prediction of SNOs between METOP-B and NOAA-19 Satellite Orbit:

Table of predicted SNOs for the next 14.0 days since TLE Epoch: 5/15/2021
Index Date (METOP-B) Time (METOP-B) Lat,Lon (METOP-B) SZA (METOP-B ) Date (NOAA-19) Time (NOAA-19) Lat,Lon (NOAA-19) SZA (NOAA-19 ) Distance(km) Time Diff (sec)
1 05/20/2021 00:30:54 80.49,-159.56 61.74 05/20/2021 00:29:58 80.51,-159.49 61.73 1.94 56
2 05/20/2021 01:21:35 -80.50, 7.82 118.27 05/20/2021 01:20:53 -80.50, 7.99 118.27 3.03 42
3 05/20/2021 02:12:15 80.51, 175.31 61.75 05/20/2021 02:11:58 80.50, 175.14 61.73 3.34 17
4 05/20/2021 03:02:57 -80.49, -17.63 118.30 05/20/2021 03:02:54 -80.51, -17.73 118.29 2.72 3
5 05/20/2021 03:53:37 80.50, 149.85 61.72 05/20/2021 03:53:58 80.49, 149.77 61.72 1.76 21
6 05/20/2021 04:44:18 -80.50, -42.76 118.28 05/20/2021 04:44:53 -80.48, -42.76 118.29 2.13 35
7 05/20/2021 05:34:58 80.49, 124.40 61.69 05/20/2021 05:35:57 80.49, 124.39 61.71 0.35 59



Historial Predications of SNOs between METOP-B and NOAA-19
